When you browse on this site, cookies collect data to enhance your experience and personalize the content and advertising you see.
Visit our Privacy Policy to learn more. By continuing to use the site, you agree to this use of cookies and data.
  • In Portugal
  • List of Countries
  • For 7 days
  • Water Temperature
  • Satellite Maps
  • Weather Map
  • Weather Widgets
  • user-avatar
    Login

    Hourly Weather Kyrdzhali

    Today, 22 January, Tuesday

    Time Temperature Precipitation Wind Pressure Humidity
    00:00 +4°C° 0 mm 1 mps 728 mmHg 92%
    01:00 +3°C° 0 mm 1 mps 728 mmHg 93%
    02:00 +3°C° 0 mm 1 mps 728 mmHg 94%
    03:00 +3°C° 0 mm 1 mps 728 mmHg 94%
    04:00 +2°C° 0 mm 1 mps 728 mmHg 95%
    05:00 +2°C° 0 mm 1 mps 727 mmHg 95%
    06:00 +2°C° 0.1 mm 1 mps 727 mmHg 94%
    07:00 +2°C° 0.1 mm 1 mps 727 mmHg 94%
    08:00 +2°C° 0.1 mm 1 mps 727 mmHg 94%
    09:00 +3°C° 0.1 mm 1 mps 727 mmHg 92%
    10:00 +3°C° 0.1 mm 1 mps 727 mmHg 90%
    11:00 +4°C° 0.1 mm 1 mps 727 mmHg 88%
    12:00 +4°C° 0.1 mm 2 mps 726 mmHg 86%
    13:00 +4°C° 0.1 mm 2 mps 726 mmHg 84%
    14:00 +5°C° 0.1 mm 2 mps 725 mmHg 82%
    15:00 +5°C° 0.1 mm 2 mps 724 mmHg 85%
    16:00 +5°C° 0.1 mm 2 mps 724 mmHg 87%
    17:00 +5°C° 0.1 mm 2 mps 723 mmHg 90%
    18:00 +4°C° 0.2 mm 2 mps 723 mmHg 91%
    19:00 +4°C° 0.2 mm 2 mps 722 mmHg 93%
    20:00 +4°C° 0.2 mm 2 mps 722 mmHg 94%
    21:00 +4°C° 0.4 mm 2 mps 721 mmHg 95%
    22:00 +4°C° 0.4 mm 2 mps 721 mmHg 95%
    23:00 +5°C° 0.4 mm 2 mps 720 mmHg 95%

    Tomorrow, 23 January, Wednesday

    Time Temperature Precipitation Wind Pressure Humidity
    00:00 +5°C° 0.6 mm 2 mps 720 mmHg 96%
    01:00 +5°C° 0.6 mm 3 mps 719 mmHg 96%
    02:00 +5°C° 0.6 mm 3 mps 719 mmHg 97%
    03:00 +5°C° 0.2 mm 3 mps 718 mmHg 96%
    04:00 +5°C° 0.2 mm 3 mps 718 mmHg 95%
    05:00 +5°C° 0.2 mm 3 mps 717 mmHg 95%
    06:00 +5°C° 0 mm 3 mps 717 mmHg 95%
    07:00 +5°C° 0 mm 3 mps 717 mmHg 94%
    08:00 +5°C° 0 mm 3 mps 718 mmHg 94%
    09:00 +7°C° 0 mm 3 mps 718 mmHg 88%
    10:00 +8°C° 0 mm 3 mps 718 mmHg 83%
    11:00 +10°C° 0 mm 4 mps 718 mmHg 77%
    12:00 +10°C° 0 mm 4 mps 718 mmHg 73%
    13:00 +10°C° 0 mm 5 mps 717 mmHg 70%
    14:00 +10°C° 0 mm 6 mps 717 mmHg 66%
    15:00 +9°C° 0 mm 5 mps 717 mmHg 72%
    16:00 +8°C° 0 mm 5 mps 717 mmHg 78%
    17:00 +7°C° 0 mm 4 mps 717 mmHg 85%
    18:00 +7°C° 0.2 mm 4 mps 716 mmHg 87%
    19:00 +7°C° 0.2 mm 4 mps 716 mmHg 90%
    20:00 +7°C° 0.2 mm 4 mps 716 mmHg 93%
    21:00 +7°C° 0.1 mm 4 mps 716 mmHg 93%
    22:00 +7°C° 0.1 mm 4 mps 716 mmHg 94%
    23:00 +7°C° 0.1 mm 4 mps 716 mmHg 94%

    Day after tomorrow, 24 January, Thursday

    Time Temperature Precipitation Wind Pressure Humidity
    00:00 +7°C° 0.6 mm 4 mps 715 mmHg 95%
    01:00 +7°C° 0.6 mm 4 mps 715 mmHg 95%
    02:00 +7°C° 0.6 mm 4 mps 714 mmHg 96%
    03:00 +6°C° 1.5 mm 4 mps 714 mmHg 96%
    04:00 +7°C° 1.5 mm 3 mps 713 mmHg 96%
    05:00 +7°C° 1.5 mm 3 mps 713 mmHg 97%
    06:00 +7°C° 1.9 mm 2 mps 713 mmHg 97%
    07:00 +7°C° 1.9 mm 2 mps 713 mmHg 97%
    08:00 +7°C° 1.9 mm 2 mps 712 mmHg 97%
    09:00 +7°C° 1.4 mm 2 mps 712 mmHg 96%
    10:00 +7°C° 1.4 mm 3 mps 712 mmHg 95%
    11:00 +5°C° 1.4 mm 3 mps 712 mmHg 93%
    12:00 +7°C° 0.9 mm 3 mps 712 mmHg 92%
    13:00 +7°C° 0.9 mm 2 mps 712 mmHg 91%
    14:00 +7°C° 0.9 mm 2 mps 711 mmHg 90%
    15:00 +7°C° 0.8 mm 2 mps 711 mmHg 92%
    16:00 +8°C° 0.8 mm 1 mps 711 mmHg 94%
    17:00 +8°C° 0.8 mm 1 mps 711 mmHg 96%
    18:00 +8°C° 0.6 mm 1 mps 711 mmHg 96%
    19:00 +8°C° 0.6 mm 1 mps 711 mmHg 97%
    20:00 +8°C° 0.6 mm 1 mps 712 mmHg 97%
    21:00 +7°C° 0.1 mm 1 mps 712 mmHg 97%
    22:00 +6°C° 0.1 mm 0 mps 713 mmHg 97%
    23:00 +6°C° 0.1 mm 0 mps 713 mmHg 96%

    25 January, Friday

    Time Temperature Precipitation Wind Pressure Humidity
    00:00 +6°C° 0 mm 0 mps 714 mmHg 96%
    01:00 +6°C° 0 mm 0 mps 714 mmHg 96%
    02:00 +6°C° 0 mm 0 mps 714 mmHg 96%
    03:00 +7°C° 0.1 mm 1 mps 714 mmHg 97%
    04:00 +7°C° 0.1 mm 1 mps 714 mmHg 97%
    05:00 +7°C° 0.1 mm 1 mps 715 mmHg 97%
    06:00 +7°C° 0.3 mm 1 mps 715 mmHg 97%
    07:00 +7°C° 0.3 mm 1 mps 715 mmHg 97%
    08:00 +7°C° 0.3 mm 1 mps 715 mmHg 96%
    09:00 +7°C° 3.3 mm 1 mps 715 mmHg 97%
    10:00 +7°C° 3.3 mm 1 mps 715 mmHg 97%
    11:00 +7°C° 3.3 mm 1 mps 715 mmHg 98%
    12:00 +7°C° 1.2 mm 2 mps 715 mmHg 95%
    13:00 +7°C° 1.2 mm 3 mps 714 mmHg 93%
    14:00 +7°C° 1.2 mm 4 mps 714 mmHg 90%
    15:00 +7°C° 0.4 mm 4 mps 714 mmHg 90%
    16:00 +7°C° 0.4 mm 4 mps 713 mmHg 91%
    17:00 +7°C° 0.4 mm 4 mps 713 mmHg 91%
    18:00 +8°C° 1.1 mm 3 mps 713 mmHg 93%
    19:00 +7°C° 1.1 mm 3 mps 713 mmHg 94%
    20:00 +7°C° 1.1 mm 3 mps 712 mmHg 96%
    21:00 +7°C° 1 mm 3 mps 713 mmHg 96%
    22:00 +7°C° 1 mm 3 mps 713 mmHg 96%
    23:00 +7°C° 1 mm 3 mps 713 mmHg 96%

    26 January, Saturday

    Time Temperature Precipitation Wind Pressure Humidity
    00:00 +7°C° 0.1 mm 2 mps 713 mmHg 96%
    01:00 +7°C° 0.1 mm 2 mps 713 mmHg 96%
    02:00 +6°C° 0.1 mm 2 mps 713 mmHg 96%
    03:00 +7°C° 0.1 mm 1 mps 713 mmHg 96%
    04:00 +7°C° 0.1 mm 1 mps 713 mmHg 96%
    05:00 +6°C° 0.1 mm 1 mps 713 mmHg 96%
    06:00 +6°C° 0.2 mm 1 mps 713 mmHg 96%
    07:00 +6°C° 0.2 mm 1 mps 713 mmHg 96%
    08:00 +5°C° 0.2 mm 2 mps 714 mmHg 96%
    09:00 +5°C° 1.2 mm 2 mps 714 mmHg 95%
    10:00 +5°C° 1.2 mm 2 mps 714 mmHg 94%
    11:00 +4°C° 1.2 mm 3 mps 714 mmHg 92%
    12:00 +3°C° 1.8 mm 3 mps 714 mmHg 91%
    13:00 +3°C° 1.8 mm 3 mps 714 mmHg 91%
    14:00 +3°C° 1.8 mm 3 mps 714 mmHg 90%
    15:00 +3°C° 0.5 mm 4 mps 714 mmHg 90%
    16:00 +3°C° 0.5 mm 4 mps 714 mmHg 89%
    17:00 +3°C° 0.5 mm 4 mps 714 mmHg 89%
    18:00 +1°C° 1.7 mm 4 mps 715 mmHg 90%
    19:00 +1°C° 1.7 mm 4 mps 715 mmHg 92%
    20:00 +2°C° 1.7 mm 3 mps 715 mmHg 93%
    21:00 +1°C° 1.2 mm 3 mps 715 mmHg 94%
    22:00 +1°C° 1.2 mm 3 mps 716 mmHg 95%
    23:00 +1°C° 1.2 mm 3 mps 716 mmHg 96%

    27 January, Sunday

    Time Temperature Precipitation Wind Pressure Humidity
    00:00 +1°C° 0.1 mm 3 mps 716 mmHg 97%
    01:00 +1°C° 0.1 mm 3 mps 716 mmHg 97%
    02:00 +1°C° 0.1 mm 3 mps 716 mmHg 97%
    03:00 +2°C° 0.2 mm 2 mps 716 mmHg 97%
    04:00 +2°C° 0.2 mm 2 mps 716 mmHg 97%
    05:00 +1°C° 0.2 mm 2 mps 716 mmHg 97%
    06:00 +1°C° 0.3 mm 2 mps 716 mmHg 97%
    07:00 +1°C° 0.3 mm 2 mps 716 mmHg 97%
    08:00 +2°C° 0.3 mm 1 mps 717 mmHg 96%
    09:00 +3°C° 0.1 mm 1 mps 717 mmHg 96%
    10:00 +3°C° 0.1 mm 1 mps 717 mmHg 97%
    11:00 +4°C° 0.1 mm 1 mps 718 mmHg 97%
    12:00 +4°C° 0 mm 1 mps 717 mmHg 96%
    13:00 +5°C° 0 mm 1 mps 717 mmHg 95%
    14:00 +5°C° 0 mm 1 mps 717 mmHg 94%
    15:00 +5°C° 0 mm 1 mps 717 mmHg 94%
    16:00 +5°C° 0 mm 1 mps 718 mmHg 95%
    17:00 +5°C° 0 mm 1 mps 718 mmHg 96%
    18:00 +4°C° 0 mm 2 mps 718 mmHg 96%
    19:00 +3°C° 0 mm 2 mps 719 mmHg 96%
    20:00 +3°C° 0 mm 2 mps 719 mmHg 97%
    21:00 +3°C° 0 mm 2 mps 719 mmHg 97%
    22:00 +3°C° 0 mm 2 mps 720 mmHg 97%
    23:00 +3°C° 0 mm 2 mps 720 mmHg 97%
    Show more